STARLINK-2736, 48640

Orbit data source: Space-Track

STARLINK-2736, 48640 is a payload satellite owned by SpaceX/Seattle (US) in LEO that was launched on Wed, 26 May 2021 UTC via an FALCON 9 launch vehicle from the Air Force Eastern Test Range (AFETR). Payload-class satellites include a variety of spacecraft equipped with specific instruments for various scientific and technological missions. These include communications satellites like Starlink; space stations such as the ISS; scientific satellites like the Hubble; Earth observation satellites from companies like Planet Labs, Umbra, and HawkEye 360; GPS; miniature CubeSats for education and research; and military/defense satellites.

Loading next visibility...
Identifier
48640, 2021-044C
Orbit
LEO
Country
Flag of USUS
Related business
Manufacturer
SpaceX/Seattle
Mission
Operational Commercial Communications
Bus & Motor
STARLINK, Unknown motor
Mass
260 kg wet, ~248 kg dry
Launch date (UTC)
2021-05-26 (5 years ago)
Launch vehicle
FALCON 9
Launch site
Air Force Eastern Test Range (AFETR)
Object type
Payload
Rocket body
Debris
Shape & HBR
Box + 1 Pan, 10.1 m
Radar Cross Section
13.562 m², Large (>1 m²)

Expand to show TLE details & history
Last TLE update: 19 hours ago

TLE from 19 hours ago
0 STARLINK-2736
1 48640U 21044C   25349.37714411  .00000581  00000-0  57897-4 0  9998
2 48640  53.0554 135.3949 0001319  88.3295 271.7845 15.06395465251061
Epoch: 2025-12-15T09:03Z
TLE epoch observation values (Epoch: 2025-12-15T09:03:05.251Z)
Latitude
-0.00001°
Longitude
-84.65357°
Altitude
548.076 km
Speed
7.589 km/s
True Right ascension
09h 01m 34s
True Declination
0° 00' 00"
Sunlit
Object was in full shadow at epoch
Visualization orbit readout
Latitude
Unknown
Longitude
Unknown
Altitude
Unknown
Speed
Unknown
Apparent Right ascension
Unknown
Apparent Declination
Unknown
Sunlit
N/A
Visualization observer readout
Local Sidereal Time
02:28:35
Azimuth
Unknown
Elevation
Unknown
Doppler factor
Unknown
Orbital elements
Apogee altitude
548.41 km
Perigee altitude
546.583 km
Semi-major axis
6,925.633 km
Eccentricity
0.00013
Inclination
53.0554°
RAAN
135.3949°
Arg. of periapsis
88.3295°
True anomaly
271.76939°
Mean anomaly
271.7845°
Eccentric anomaly
271.77695°
Mean motion
3.76577 °/min
Orbital period
95.6 mins
BSTAR
0.000057897
Loading maneuver chart data...
Computing Atmospheric mass density...
Loading historical data...
Loading historical data...
Loading historical data...
Loading historical data...
Loading historical data...
Loading historical data...
Loading historical data...

Documentation

Showing up to 5 results
|